| time (UTC) | temp F | wind direction | speed MPH | gust MPH | rain 1hr in | rain 24hr in | rain mn in | humidity % | barometer mb |
| 20260505153316 | 81 | 210 | 1.0 | 8.0 | 0.00 | 0.00 | 0.00 | 47 | 1011.1 |
| 20260505152305 | 80 | 231 | 3.0 | 8.0 | 0.00 | 0.00 | 0.00 | 47 | 1010.9 |
| 20260505151305 | 79 | 272 | 3.0 | 6.0 | 0.00 | 0.00 | 0.00 | 50 | 1011.0 |
| 20260505150805 | 79 | 327 | 1.0 | 4.0 | 0.00 | 0.00 | 0.00 | 48 | 1010.8 |
| 20260505150305 | 78 | 250 | 0.0 | 6.0 | 0.00 | 0.00 | 0.00 | 50 | 1011.1 |
| 20260505140240 | 72 | 274 | 3.0 | 7.0 | 0.00 | 0.00 | 0.00 | 57 | 1011.9 |
| 20260505130217 | 68 | 143 | 1.0 | 9.0 | 0.00 | 0.00 | 0.00 | 63 | 1011.5 |
| 20260505124717 | 68 | 250 | 0.0 | 3.0 | 0.00 | 0.00 | 0.00 | 65 | 1011.5 |
| 20260505124217 | 68 | 262 | 2.0 | 6.0 | 0.00 | 0.00 | 0.00 | 65 | 1011.5 |
| 20260505122717 | 67 | 314 | 2.0 | 8.0 | 0.00 | 0.00 | 0.00 | 66 | 1011.6 |
| 20260505122217 | 67 | 251 | 2.0 | 8.0 | 0.00 | 0.00 | 0.00 | 67 | 1011.6 |
| 20260505121718 | 66 | 253 | 1.0 | 7.0 | 0.00 | 0.00 | 0.00 | 67 | 1011.4 |
| 20260505121217 | 66 | 182 | 2.0 | 8.0 | 0.00 | 0.00 | 0.00 | 67 | 1011.7 |
| 20260505120718 | 66 | 219 | 4.0 | 8.0 | 0.00 | 0.00 | 0.00 | 66 | 1011.7 |
| 20260505120217 | 67 | 255 | 2.0 | 4.0 | 0.00 | 0.00 | 0.00 | 66 | 1011.7 |
| 20260505115717 | 66 | 208 | 2.0 | 4.0 | 0.00 | 0.00 | 0.00 | 66 | 1011.5 |
| 20260505115217 | 66 | 177 | 1.0 | 4.0 | 0.00 | 0.00 | 0.00 | 67 | 1011.4 |
| 20260505114704 | 65 | 247 | 2.0 | 4.0 | 0.00 | 0.00 | 0.00 | 67 | 1011.5 |
| 20260505114204 | 65 | 249 | 0.0 | 3.0 | 0.00 | 0.00 | 0.00 | 70 | 1011.7 |
| 20260505113704 | 64 | 222 | 1.0 | 6.0 | 0.00 | 0.00 | 0.00 | 70 | 1011.5 |
| 20260505113204 | 64 | 239 | 1.0 | 6.0 | 0.00 | 0.00 | 0.00 | 71 | 1011.8 |
| 20260505112705 | 64 | 219 | 0.0 | 7.0 | 0.00 | 0.00 | 0.00 | 71 | 1011.6 |
| 20260505112204 | 64 | 301 | 2.0 | 7.0 | 0.00 | 0.00 | 0.00 | 70 | 1011.8 |
| 20260505111152 | 63 | 257 | 2.0 | 6.0 | 0.00 | 0.00 | 0.00 | 72 | 1011.5 |
| 20260505110652 | 63 | 275 | 1.0 | 6.0 | 0.00 | 0.00 | 0.00 | 72 | 1011.6 |
| 20260505102153 | 61 | 214 | 1.0 | 6.0 | 0.00 | 0.00 | 0.00 | 75 | 1011.3 |
| 20260505101653 | 60 | 220 | 2.0 | 6.0 | 0.00 | 0.00 | 0.00 | 76 | 1011.4 |
| 20260505101153 | 60 | 245 | 1.0 | 7.0 | 0.00 | 0.00 | 0.00 | 77 | 1011.4 |
| 20260505100653 | 60 | 254 | 0.0 | 7.0 | 0.00 | 0.00 | 0.00 | 77 | 1011.4 |
| 20260505100153 | 60 | 256 | 2.0 | 7.0 | 0.00 | 0.00 | 0.00 | 77 | 1010.9 |
| 20260505095652 | 59 | 261 | 4.0 | 6.0 | 0.00 | 0.00 | 0.00 | 79 | 1011.0 |
| 20260505095152 | 59 | 249 | 0.0 | 3.0 | 0.00 | 0.00 | 0.00 | 79 | 1010.9 |
| 20260505094652 | 59 | 285 | 2.0 | 4.0 | 0.00 | 0.00 | 0.00 | 79 | 1010.7 |
| 20260505094152 | 59 | 196 | 1.0 | 4.0 | 0.00 | 0.00 | 0.00 | 79 | 1010.3 |
| 20260505093652 | 59 | 253 | 0.0 | 3.0 | 0.00 | 0.00 | 0.00 | 79 | 1010.5 |
| 20260505093140 | 59 | 46 | 1.0 | 3.0 | 0.00 | 0.00 | 0.00 | 78 | 1010.6 |
| 20260505092640 | 59 | 240 | 2.0 | 6.0 | 0.00 | 0.00 | 0.00 | 78 | 1010.2 |
| 20260505092140 | 59 | 171 | 3.0 | 6.0 | 0.00 | 0.00 | 0.00 | 78 | 1010.3 |
| 20260505091640 | 59 | 336 | 3.0 | 7.0 | 0.00 | 0.00 | 0.00 | 78 | 1010.5 |
| 20260505091133 | 59 | 251 | 0.0 | 7.0 | 0.00 | 0.00 | 0.00 | 77 | 1010.1 |
| 20260505090628 | 59 | 170 | 1.0 | 6.0 | 0.00 | 0.00 | 0.00 | 78 | 1010.2 |
| 20260505090127 | 59 | 213 | 1.0 | 4.0 | 0.00 | 0.00 | 0.00 | 78 | 1010.5 |
| 20260505085628 | 59 | 233 | 1.0 | 4.0 | 0.00 | 0.00 | 0.00 | 78 | 1010.6 |
| 20260505085128 | 58 | 250 | 0.0 | 3.0 | 0.00 | 0.00 | 0.00 | 78 | 1010.4 |
| 20260505084628 | 58 | 228 | 0.0 | 3.0 | 0.00 | 0.00 | 0.00 | 79 | 1010.8 |
| 20260505084115 | 58 | 232 | 1.0 | 4.0 | 0.00 | 0.00 | 0.00 | 79 | 1010.5 |
| 20260505083117 | 58 | 268 | 0.0 | 3.0 | 0.00 | 0.00 | 0.00 | 79 | 1010.7 |
| 20260505082605 | 58 | 239 | 0.0 | 3.0 | 0.00 | 0.00 | 0.00 | 79 | 1010.3 |
| 20260505082106 | 58 | 260 | 0.0 | 1.0 | 0.00 | 0.00 | 0.00 | 79 | 1010.8 |
| 20260505081104 | 58 | 222 | 0.0 | 1.0 | 0.00 | 0.00 | 0.00 | 78 | 1010.7 |
| 20260505080605 | 58 | 238 | 0.0 | 1.0 | 0.00 | 0.00 | 0.00 | 78 | 1010.6 |
| 20260505080104 | 58 | 250 | 0.0 | 3.0 | 0.00 | 0.00 | 0.00 | 77 | 1010.9 |
| 20260505075604 | 59 | 237 | 0.0 | 3.0 | 0.00 | 0.00 | 0.00 | 76 | 1010.6 |
| 20260505075104 | 59 | 207 | 0.0 | 2.0 | 0.00 | 0.00 | 0.00 | 76 | 1010.5 |
| 20260505074104 | 58 | 220 | 1.0 | 2.0 | 0.00 | 0.00 | 0.00 | 76 | 1010.6 |
| 20260505072603 | 59 | 226 | 0.0 | 2.0 | 0.00 | 0.00 | 0.00 | 75 | 1010.4 |
| 20260505071603 | 58 | 238 | 0.0 | 3.0 | 0.00 | 0.00 | 0.00 | 75 | 1010.2 |
| 20260505071103 | 58 | 251 | 0.0 | 1.0 | 0.00 | 0.00 | 0.00 | 75 | 1010.4 |
| 20260505070603 | 59 | 255 | 0.0 | 2.0 | 0.00 | 0.00 | 0.00 | 74 | 1010.5 |
| 20260505065603 | 59 | 246 | 0.0 | 3.0 | 0.00 | 0.00 | 0.00 | 74 | 1010.2 |
| 20260505065104 | 59 | 202 | 1.0 | 3.0 | 0.00 | 0.00 | 0.00 | 73 | 1010.6 |
| 20260505064604 | 59 | 263 | 0.0 | 2.0 | 0.00 | 0.00 | 0.00 | 73 | 1010.6 |
| 20260505064104 | 59 | 256 | 1.0 | 4.0 | 0.00 | 0.00 | 0.00 | 73 | 1010.7 |
| 20260505063604 | 59 | 266 | 0.0 | 4.0 | 0.00 | 0.00 | 0.00 | 73 | 1010.4 |
| 20260505063104 | 59 | 288 | 0.0 | 3.0 | 0.00 | 0.00 | 0.00 | 73 | 1010.5 |
| 20260505062604 | 60 | 249 | 1.0 | 2.0 | 0.00 | 0.00 | 0.00 | 72 | 1010.7 |
| 20260505062105 | 60 | 265 | 1.0 | 3.0 | 0.00 | 0.00 | 0.00 | 72 | 1010.6 |
| 20260505061602 | 59 | 279 | 1.0 | 2.0 | 0.00 | 0.00 | 0.00 | 72 | 1010.5 |
| 20260505061103 | 59 | 284 | 0.0 | 2.0 | 0.00 | 0.00 | 0.00 | 72 | 1010.6 |
| 20260505060603 | 59 | 285 | 1.0 | 4.0 | 0.00 | 0.00 | 0.00 | 72 | 1010.6 |
| 20260505060103 | 58 | 70 | 0.0 | 4.0 | 0.00 | 0.00 | 0.00 | 73 | 1010.6 |
| 20260505055604 | 58 | 177 | 1.0 | 3.0 | 0.00 | 0.00 | 0.00 | 74 | 1010.7 |
| 20260505055104 | 58 | 265 | 0.0 | 2.0 | 0.00 | 0.00 | 0.00 | 74 | 1010.5 |
| 20260505054551 | 58 | 246 | 0.0 | 2.0 | 0.00 | 0.00 | 0.00 | 74 | 1010.5 |
| 20260505054051 | 58 | 238 | 0.0 | 0.0 | 0.00 | 0.00 | 0.00 | 74 | 1010.9 |
| 20260505053551 | 58 | 250 | 0.0 | 1.0 | 0.00 | 0.00 | 0.00 | 74 | 1010.7 |
| 20260505053050 | 58 | 257 | 0.0 | 1.0 | 0.00 | 0.00 | 0.00 | 73 | 1010.7 |
| 20260505052552 | 58 | 240 | 0.0 | 1.0 | 0.00 | 0.00 | 0.00 | 73 | 1010.7 |
| 20260505052052 | 59 | 256 | 0.0 | 1.0 | 0.00 | 0.00 | 0.00 | 72 | 1010.6 |
| 20260505051551 | 59 | 243 | 0.0 | 2.0 | 0.00 | 0.00 | 0.00 | 71 | 1010.6 |
| 20260505051051 | 60 | 263 | 0.0 | 2.0 | 0.00 | 0.00 | 0.00 | 70 | 1010.7 |
| 20260505050551 | 60 | 206 | 1.0 | 2.0 | 0.00 | 0.00 | 0.00 | 70 | 1010.9 |
| 20260505041552 | 60 | 103 | 1.0 | 2.0 | 0.00 | 0.00 | 0.00 | 67 | 1011.0 |
| 20260505041052 | 60 | 205 | 0.0 | 3.0 | 0.00 | 0.00 | 0.00 | 68 | 1011.1 |
| 20260505040552 | 60 | 253 | 0.0 | 3.0 | 0.00 | 0.00 | 0.00 | 67 | 1011.0 |
| 20260505040052 | 60 | 251 | 0.0 | 2.0 | 0.00 | 0.00 | 0.00 | 67 | 1010.9 |
| 20260505035051 | 61 | 296 | 0.0 | 3.0 | 0.00 | 0.00 | 0.00 | 66 | 1011.3 |
| 20260505034552 | 61 | 185 | 2.0 | 3.0 | 0.00 | 0.00 | 0.00 | 66 | 1010.9 |
| 20260505034050 | 61 | 242 | 0.0 | 1.0 | 0.00 | 0.00 | 0.00 | 66 | 1011.1 |
| 20260505033552 | 61 | 272 | 0.0 | 1.0 | 0.00 | 0.00 | 0.00 | 66 | 1011.2 |
| 20260505033052 | 61 | 288 | 0.0 | 2.0 | 0.00 | 0.00 | 0.00 | 65 | 1011.1 |
| 20260505032551 | 61 | 259 | 0.0 | 2.0 | 0.00 | 0.00 | 0.00 | 65 | 1011.1 |
| 20260505032051 | 61 | 58 | 1.0 | 2.0 | 0.00 | 0.00 | 0.00 | 64 | 1011.4 |
| 20260505031551 | 62 | 145 | 1.0 | 3.0 | 0.00 | 0.00 | 0.00 | 63 | 1011.3 |
| 20260505031051 | 62 | 298 | 1.0 | 3.0 | 0.00 | 0.00 | 0.00 | 63 | 1011.0 |
| 20260505030552 | 62 | 263 | 0.0 | 3.0 | 0.00 | 0.00 | 0.00 | 63 | 1011.3 |
| 20260505030051 | 62 | 224 | 0.0 | 3.0 | 0.00 | 0.00 | 0.00 | 62 | 1011.5 |
| 20260505025552 | 62 | 183 | 1.0 | 3.0 | 0.00 | 0.00 | 0.00 | 62 | 1011.2 |
| 20260505024551 | 62 | 131 | 0.0 | 2.0 | 0.00 | 0.00 | 0.00 | 61 | 1011.2 |
| 20260505024051 | 62 | 236 | 0.0 | 3.0 | 0.00 | 0.00 | 0.00 | 60 | 1011.4 |
| 20260505023551 | 62 | 179 | 2.0 | 3.0 | 0.00 | 0.00 | 0.00 | 60 | 1011.4 |
| 20260505023051 | 62 | 238 | 0.0 | 1.0 | 0.00 | 0.00 | 0.00 | 60 | 1011.5 |
| 20260505021051 | 63 | 247 | 0.0 | 3.0 | 0.00 | 0.00 | 0.00 | 58 | 1011.5 |
| 20260505020551 | 64 | 130 | 0.0 | 3.0 | 0.00 | 0.00 | 0.00 | 58 | 1011.6 |
| 20260505020051 | 63 | 139 | 0.0 | 2.0 | 0.00 | 0.00 | 0.00 | 58 | 1011.5 |
| 20260505015551 | 64 | 40 | 2.0 | 2.0 | 0.00 | 0.00 | 0.00 | 57 | 1011.7 |
| 20260505015051 | 64 | 340 | 1.0 | 2.0 | 0.00 | 0.00 | 0.00 | 57 | 1011.6 |
| 20260505014552 | 64 | 237 | 0.0 | 3.0 | 0.00 | 0.00 | 0.00 | 56 | 1011.0 |
| 20260505014050 | 64 | 196 | 2.0 | 3.0 | 0.00 | 0.00 | 0.00 | 55 | 1011.4 |
| 20260505013551 | 64 | 34 | 0.0 | 3.0 | 0.00 | 0.00 | 0.00 | 55 | 1011.5 |
| 20260505013051 | 65 | 60 | 1.0 | 3.0 | 0.00 | 0.00 | 0.00 | 55 | 1011.4 |
| 20260505012551 | 65 | 126 | 1.0 | 2.0 | 0.00 | 0.00 | 0.00 | 54 | 1011.2 |
| 20260505012051 | 65 | 259 | 0.0 | 4.0 | 0.00 | 0.00 | 0.00 | 54 | 1011.0 |
| 20260505011551 | 65 | 128 | 1.0 | 4.0 | 0.00 | 0.00 | 0.00 | 53 | 1011.1 |
| 20260505010551 | 66 | 153 | 0.0 | 4.0 | 0.00 | 0.00 | 0.00 | 51 | 1011.0 |
| 20260505010051 | 66 | 223 | 1.0 | 1.0 | 0.00 | 0.00 | 0.00 | 49 | 1010.7 |
| 20260505005551 | 65 | 234 | 0.0 | 2.0 | 0.00 | 0.00 | 0.00 | 48 | 1010.9 |
| 20260505005051 | 65 | 177 | 1.0 | 2.0 | 0.00 | 0.00 | 0.00 | 47 | 1010.6 |
| 20260505004551 | 65 | 230 | 0.0 | 1.0 | 0.00 | 0.00 | 0.00 | 48 | 1010.6 |
| 20260505004051 | 66 | 218 | 0.0 | 1.0 | 0.00 | 0.00 | 0.00 | 47 | 1010.4 |
| 20260505003533 | 67 | 244 | 0.0 | 1.0 | 0.00 | 0.00 | 0.00 | 45 | 1010.4 |
| 20260505003027 | 67 | 229 | 0.0 | 3.0 | 0.00 | 0.00 | 0.00 | 44 | 1010.5 |
| 20260505002027 | 67 | 253 | 0.0 | 2.0 | 0.00 | 0.00 | 0.00 | 44 | 1010.4 |
| 20260505001527 | 68 | 243 | 0.0 | 2.0 | 0.00 | 0.00 | 0.00 | 43 | 1010.1 |
| 20260505001027 | 68 | 175 | 1.0 | 4.0 | 0.00 | 0.00 | 0.00 | 43 | 1010.2 |
| 20260505000527 | 69 | 255 | 0.0 | 4.0 | 0.00 | 0.00 | 0.00 | 42 | 1010.2 |
| 20260505000027 | 69 | 255 | 1.0 | 4.0 | 0.00 | 0.00 | 0.00 | 42 | 1010.0 |
| 20260504235527 | 69 | 257 | 1.0 | 3.0 | 0.00 | 0.00 | 0.00 | 42 | 1009.9 |
| 20260504235028 | 69 | 231 | 0.0 | 3.0 | 0.00 | 0.00 | 0.00 | 41 | 1009.7 |
| 20260504234527 | 70 | 283 | 1.0 | 6.0 | 0.00 | 0.00 | 0.00 | 40 | 1009.9 |
| 20260504233527 | 70 | 243 | 1.0 | 6.0 | 0.00 | 0.00 | 0.00 | 40 | 1009.8 |
| 20260504233027 | 70 | 104 | 0.0 | 6.0 | 0.00 | 0.00 | 0.00 | 40 | 1009.5 |
| 20260504232515 | 71 | 283 | 1.0 | 6.0 | 0.00 | 0.00 | 0.00 | 39 | 1009.7 |
| 20260504232015 | 71 | 266 | 2.0 | 8.0 | 0.00 | 0.00 | 0.00 | 39 | 1009.4 |
| 20260504231517 | 71 | 247 | 2.0 | 8.0 | 0.00 | 0.00 | 0.00 | 38 | 1009.6 |
| 20260504231005 | 72 | 187 | 1.0 | 7.0 | 0.00 | 0.00 | 0.00 | 38 | 1009.6 |
| 20260504230505 | 72 | 95 | 1.0 | 7.0 | 0.00 | 0.00 | 0.00 | 38 | 1009.5 |
| 20260504230005 | 72 | 298 | 0.0 | 7.0 | 0.00 | 0.00 | 0.00 | 38 | 1009.6 |
| 20260504225505 | 72 | 243 | 0.0 | 7.0 | 0.00 | 0.00 | 0.00 | 37 | 1009.3 |
| 20260504225004 | 72 | 244 | 1.0 | 7.0 | 0.00 | 0.00 | 0.00 | 37 | 1009.3 |
| 20260504224504 | 73 | 292 | 2.0 | 6.0 | 0.00 | 0.00 | 0.00 | 37 | 1009.4 |
| 20260504223503 | 73 | 255 | 1.0 | 7.0 | 0.00 | 0.00 | 0.00 | 36 | 1009.5 |
| 20260504223005 | 74 | 223 | 2.0 | 4.0 | 0.00 | 0.00 | 0.00 | 36 | 1009.3 |
| 20260504222503 | 74 | 295 | 1.0 | 6.0 | 0.00 | 0.00 | 0.00 | 36 | 1009.4 |
| 20260504222003 | 74 | 50 | 3.0 | 6.0 | 0.00 | 0.00 | 0.00 | 36 | 1009.5 |
| 20260504221003 | 74 | 244 | 5.0 | 8.0 | 0.00 | 0.00 | 0.00 | 35 | 1009.5 |
| 20260504220504 | 74 | 286 | 2.0 | 8.0 | 0.00 | 0.00 | 0.00 | 35 | 1009.5 |
| 20260504220005 | 75 | 309 | 2.0 | 8.0 | 0.00 | 0.00 | 0.00 | 35 | 1009.4 |
| 20260504215003 | 75 | 278 | 1.0 | 8.0 | 0.00 | 0.00 | 0.00 | 35 | 1009.5 |
| 20260504214504 | 75 | 273 | 2.0 | 8.0 | 0.00 | 0.00 | 0.00 | 35 | 1009.6 |
| 20260504214005 | 75 | 168 | 2.0 | 13.0 | 0.00 | 0.00 | 0.00 | 34 | 1009.7 |
| 20260504213503 | 75 | 218 | 1.0 | 13.0 | 0.00 | 0.00 | 0.00 | 35 | 1009.6 |
| 20260504213003 | 75 | 60 | 1.0 | 14.0 | 0.00 | 0.00 | 0.00 | 35 | 1009.7 |
| 20260504212504 | 75 | 321 | 1.0 | 14.0 | 0.00 | 0.00 | 0.00 | 34 | 1009.8 |
| 20260504211004 | 76 | 230 | 2.0 | 6.0 | 0.00 | 0.00 | 0.00 | 35 | 1009.9 |
| 20260504210505 | 75 | 196 | 1.0 | 6.0 | 0.00 | 0.00 | 0.00 | 35 | 1009.9 |
| 20260504210004 | 75 | 289 | 1.0 | 8.0 | 0.00 | 0.00 | 0.00 | 35 | 1009.8 |
| 20260504205505 | 75 | 208 | 3.0 | 8.0 | 0.00 | 0.00 | 0.00 | 34 | 1009.7 |
| 20260504205004 | 75 | 163 | 2.0 | 15.0 | 0.00 | 0.00 | 0.00 | 35 | 1009.5 |
| 20260504204504 | 76 | 220 | 6.0 | 15.0 | 0.00 | 0.00 | 0.00 | 34 | 1009.6 |
| 20260504204004 | 75 | 216 | 1.0 | 9.0 | 0.00 | 0.00 | 0.00 | 34 | 1009.9 |
| 20260504203004 | 76 | 263 | 1.0 | 7.0 | 0.00 | 0.00 | 0.00 | 35 | 1009.9 |
| 20260504202004 | 75 | 197 | 2.0 | 7.0 | 0.00 | 0.00 | 0.00 | 34 | 1009.8 |
| 20260504201504 | 75 | 277 | 4.0 | 15.0 | 0.00 | 0.00 | 0.00 | 35 | 1009.6 |
| 20260504201004 | 76 | 244 | 7.0 | 15.0 | 0.00 | 0.00 | 0.00 | 34 | 1010.0 |
| 20260504200503 | 76 | 354 | 4.0 | 8.0 | 0.00 | 0.00 | 0.00 | 35 | 1010.0 |
| 20260504195504 | 75 | 253 | 1.0 | 6.0 | 0.00 | 0.00 | 0.00 | 36 | 1010.1 |
| 20260504195004 | 75 | 322 | 1.0 | 7.0 | 0.00 | 0.00 | 0.00 | 36 | 1009.8 |
| 20260504194504 | 75 | 206 | 2.0 | 9.0 | 0.00 | 0.00 | 0.00 | 35 | 1010.2 |
| 20260504194003 | 75 | 258 | 4.0 | 9.0 | 0.00 | 0.00 | 0.00 | 35 | 1010.0 |
| 20260504193502 | 76 | 176 | 5.0 | 9.0 | 0.00 | 0.00 | 0.00 | 35 | 1010.1 |
| 20260504193002 | 75 | 251 | 0.0 | 9.0 | 0.00 | 0.00 | 0.00 | 36 | 1010.0 |
| 20260504191502 | 74 | 280 | 4.0 | 10.0 | 0.00 | 0.00 | 0.00 | 35 | 1010.3 |
| 20260504185502 | 75 | 280 | 5.0 | 9.0 | 0.00 | 0.00 | 0.00 | 35 | 1010.6 |
| 20260504185002 | 75 | 259 | 2.0 | 9.0 | 0.00 | 0.00 | 0.00 | 36 | 1010.8 |
| 20260504184502 | 73 | 342 | 1.0 | 9.0 | 0.00 | 0.00 | 0.00 | 37 | 1010.8 |
| 20260504184002 | 74 | 280 | 2.0 | 7.0 | 0.00 | 0.00 | 0.00 | 36 | 1011.0 |
| 20260504183503 | 74 | 308 | 2.0 | 9.0 | 0.00 | 0.00 | 0.00 | 38 | 1010.9 |
| 20260504183002 | 74 | 243 | 3.0 | 13.0 | 0.00 | 0.00 | 0.00 | 35 | 1011.0 |
| 20260504182502 | 74 | 308 | 5.0 | 13.0 | 0.00 | 0.00 | 0.00 | 36 | 1011.1 |
| 20260504182002 | 73 | 278 | 8.0 | 13.0 | 0.00 | 0.00 | 0.00 | 36 | 1011.2 |
| 20260504181502 | 73 | 248 | 2.0 | 8.0 | 0.00 | 0.00 | 0.00 | 38 | 1011.2 |
| 20260504181002 | 73 | 245 | 3.0 | 10.0 | 0.00 | 0.00 | 0.00 | 36 | 1011.2 |
| 20260504180502 | 73 | 225 | 2.0 | 10.0 | 0.00 | 0.00 | 0.00 | 36 | 1011.2 |
| 20260504180002 | 73 | 250 | 1.0 | 9.0 | 0.00 | 0.00 | 0.00 | 37 | 1011.2 |
| 20260504175502 | 73 | 203 | 2.0 | 9.0 | 0.00 | 0.00 | 0.00 | 36 | 1011.6 |
| 20260504174502 | 72 | 306 | 2.0 | 10.0 | 0.00 | 0.00 | 0.00 | 38 | 1011.8 |
| 20260504174002 | 70 | 194 | 1.0 | 10.0 | 0.00 | 0.00 | 0.00 | 39 | 1011.8 |
| 20260504173502 | 71 | 239 | 4.0 | 13.0 | 0.00 | 0.00 | 0.00 | 37 | 1011.8 |
| 20260504173001 | 71 | 218 | 5.0 | 13.0 | 0.00 | 0.00 | 0.00 | 38 | 1011.8 |
| 20260504172502 | 71 | 185 | 2.0 | 13.0 | 0.00 | 0.00 | 0.00 | 39 | 1011.6 |
| 20260504172002 | 71 | 213 | 2.0 | 14.0 | 0.00 | 0.00 | 0.00 | 39 | 1012.0 |
| 20260504171502 | 71 | 218 | 2.0 | 14.0 | 0.00 | 0.00 | 0.00 | 39 | 1011.9 |